contact:dominique.lefevre@mio.osupytheas.fr, maurice.libes@osupytheas.fr, didier.mallarino@osupytheas.fr
Project:EMSO http://www.emso-fr.org/EMSO-France
Depth: 2436.0 m
Title:EMSO Ligure Ouest : Data MII capteur CSTAR
DateTime,Latitude,Longitude,Instrument_Serial,Reference_Counts,Signal_Counts,Corrected_Signal_raw_counts,Calculated_Beam_c_inverse_meters,Internal_thermistor_counts
DateTime,Latitude,Longitude,Instrument_Serial,Reference_Counts,Signal_Counts,Corrected_Signal_raw_counts,Calculated_Beam_c_inverse_meters,Internal_thermistor_counts
2020-05-17T00:00:13,42.805,6.029,CST-1368DR,6316,8852,15166,0.117,551
2020-05-17T00:03:15,42.805,6.029,CST-1368DR,6316,8851,15164,0.117,551
2020-05-17T00:06:17,42.805,6.029,CST-1368DR,6316,8854,15169,0.116,551
2020-05-17T00:09:18,42.805,6.029,CST-1368DR,6316,8853,15168,0.116,551
2020-05-17T00:12:20,42.805,6.029,CST-1368DR,6316,8853,15168,0.116,551
2020-05-17T00:15:22,42.805,6.029,CST-1368DR,6316,8853,15168,0.116,551
2020-05-17T00:18:23,42.805,6.029,CST-1368DR,6316,8852,15166,0.117,551
2020-05-17T00:21:25,42.805,6.029,CST-1368DR,6316,8853,15169,0.116,551
2020-05-17T00:24:27,42.805,6.029,CST-1368DR,6316,8852,15166,0.117,551
2020-05-17T00:27:28,42.805,6.029,CST-1368DR,6316,8853,15167,0.117,551
2020-05-17T00:30:30,42.805,6.029,CST-1368DR,6316,8851,15164,0.117,550
2020-05-17T00:33:32,42.805,6.029,CST-1368DR,6316,8852,15166,0.117,550
2020-05-17T00:36:33,42.805,6.029,CST-1368DR,6316,8850,15163,0.118,551
2020-05-17T00:39:35,42.805,6.029,CST-1368DR,6316,8853,15168,0.116,551
2020-05-17T00:42:37,42.805,6.029,CST-1368DR,6316,8853,15169,0.116,551
2020-05-17T00:45:39,42.805,6.029,CST-1368DR,6316,8853,15168,0.116,551
2020-05-17T00:48:40,42.805,6.029,CST-1368DR,6316,8850,15162,0.118,551
2020-05-17T00:51:42,42.805,6.029,CST-1368DR,6316,8851,15164,0.117,551
2020-05-17T00:54:44,42.805,6.029,CST-1368DR,6316,8853,15169,0.116,551
2020-05-17T00:57:46,42.805,6.029,CST-1368DR,6316,8853,15168,0.116,551
2020-05-17T01:00:47,42.805,6.029,CST-1368DR,6316,8852,15167,0.117,551
2020-05-17T01:03:49,42.805,6.029,CST-1368DR,6316,8852,15167,0.117,551
2020-05-17T01:06:51,42.805,6.029,CST-1368DR,6316,8853,15169,0.116,551
2020-05-17T01:09:52,42.805,6.029,CST-1368DR,6316,8853,15168,0.116,551
2020-05-17T01:12:54,42.805,6.029,CST-1368DR,6316,8853,15169,0.116,550
2020-05-17T01:15:56,42.805,6.029,CST-1368DR,6316,8853,15169,0.116,551
2020-05-17T01:18:58,42.805,6.029,CST-1368DR,6316,8854,15169,0.116,551
2020-05-17T01:21:59,42.805,6.029,CST-1368DR,6316,8853,15168,0.116,551
2020-05-17T01:25:01,42.805,6.029,CST-1368DR,6316,8853,15169,0.116,551
2020-05-17T01:28:03,42.805,6.029,CST-1368DR,6316,8853,15168,0.116,551
2020-05-17T01:31:04,42.805,6.029,CST-1368DR,6316,8853,15167,0.117,551
2020-05-17T01:34:06,42.805,6.029,CST-1368DR,6316,8851,15164,0.117,551
2020-05-17T01:37:08,42.805,6.029,CST-1368DR,6316,8851,15164,0.117,551
2020-05-17T01:40:10,42.805,6.029,CST-1368DR,6316,8851,15164,0.117,551
2020-05-17T01:43:12,42.805,6.029,CST-1368DR,6316,8853,15167,0.117,551
2020-05-17T01:46:13,42.805,6.029,CST-1368DR,6316,8852,15166,0.117,551
2020-05-17T01:49:15,42.805,6.029,CST-1368DR,6316,8853,15167,0.117,551
2020-05-17T01:52:17,42.805,6.029,CST-1368DR,6316,8847,15158,0.119,551
2020-05-17T01:55:18,42.805,6.029,CST-1368DR,6316,8852,15166,0.117,551
2020-05-17T01:58:20,42.805,6.029,CST-1368DR,6316,8852,15166,0.117,551
2020-05-17T02:01:22,42.805,6.029,CST-1368DR,6316,8853,15167,0.117,551
2020-05-17T02:04:23,42.805,6.029,CST-1368DR,6316,8850,15162,0.118,551
2020-05-17T02:07:25,42.805,6.029,CST-1368DR,6316,8852,15166,0.117,551
2020-05-17T02:10:27,42.805,6.029,CST-1368DR,6316,8852,15166,0.117,551
2020-05-17T02:13:29,42.805,6.029,CST-1368DR,6316,8852,15166,0.117,551
2020-05-17T02:16:30,42.805,6.029,CST-1368DR,6316,8852,15167,0.117,551
2020-05-17T02:19:32,42.805,6.029,CST-1368DR,6316,8846,15157,0.119,551
2020-05-17T02:22:34,42.805,6.029,CST-1368DR,6316,8852,15166,0.117,551
2020-05-17T02:25:35,42.805,6.029,CST-1368DR,6316,8851,15164,0.117,551
2020-05-17T02:28:37,42.805,6.029,CST-1368DR,6316,8851,15165,0.117,551
2020-05-17T02:31:39,42.805,6.029,CST-1368DR,6316,8851,15165,0.117,551
2020-05-17T02:34:40,42.805,6.029,CST-1368DR,6316,8851,15165,0.117,550
2020-05-17T02:37:42,42.805,6.029,CST-1368DR,6316,8850,15163,0.118,551
2020-05-17T02:40:44,42.805,6.029,CST-1368DR,6316,8851,15164,0.117,551
2020-05-17T02:43:45,42.805,6.029,CST-1368DR,6316,8848,15159,0.119,551
2020-05-17T02:46:47,42.805,6.029,CST-1368DR,6316,8851,15164,0.117,551
2020-05-17T02:49:49,42.805,6.029,CST-1368DR,6316,8851,15165,0.117,551
2020-05-17T02:52:51,42.805,6.029,CST-1368DR,6316,8851,15164,0.117,551
2020-05-17T02:55:52,42.805,6.029,CST-1368DR,6316,8852,15166,0.117,551
2020-05-17T02:58:54,42.805,6.029,CST-1368DR,6316,8850,15163,0.118,551
2020-05-17T03:01:56,42.805,6.029,CST-1368DR,6316,8851,15165,0.117,551
2020-05-17T03:04:57,42.805,6.029,CST-1368DR,6316,8852,15167,0.117,551
2020-05-17T03:07:59,42.805,6.029,CST-1368DR,6316,8851,15165,0.117,551
2020-05-17T03:11:01,42.805,6.029,CST-1368DR,6316,8852,15166,0.117,551
2020-05-17T03:14:03,42.805,6.029,CST-1368DR,6316,8852,15166,0.117,551
2020-05-17T03:17:05,42.805,6.029,CST-1368DR,6316,8852,15166,0.117,551
2020-05-17T03:20:06,42.805,6.029,CST-1368DR,6316,8851,15164,0.117,551
2020-05-17T03:23:08,42.805,6.029,CST-1368DR,6316,8848,15159,0.119,551
2020-05-17T03:26:10,42.805,6.029,CST-1368DR,6316,8851,15165,0.117,551
2020-05-17T03:29:11,42.805,6.029,CST-1368DR,6316,8852,15167,0.117,551
2020-05-17T03:32:13,42.805,6.029,CST-1368DR,6316,8852,15166,0.117,551
2020-05-17T03:35:15,42.805,6.029,CST-1368DR,6316,8850,15163,0.118,551
2020-05-17T03:38:16,42.805,6.029,CST-1368DR,6316,8852,15166,0.117,551
2020-05-17T03:41:18,42.805,6.029,CST-1368DR,6316,8851,15164,0.117,551
2020-05-17T03:44:20,42.805,6.029,CST-1368DR,6316,8851,15164,0.117,551
2020-05-17T03:47:21,42.805,6.029,CST-1368DR,6316,8852,15166,0.117,551
2020-05-17T03:50:23,42.805,6.029,CST-1368DR,6315,8851,15166,0.117,551
2020-05-17T03:53:25,42.805,6.029,CST-1368DR,6316,8852,15166,0.117,551
2020-05-17T03:56:26,42.805,6.029,CST-1368DR,6316,8852,15166,0.117,551
2020-05-17T03:59:28,42.805,6.029,CST-1368DR,6316,8851,15165,0.117,551
2020-05-17T04:02:30,42.805,6.029,CST-1368DR,6315,8850,15166,0.117,551
2020-05-17T04:05:32,42.805,6.029,CST-1368DR,6316,8851,15164,0.117,551
2020-05-17T04:08:33,42.805,6.029,CST-1368DR,6315,8851,15166,0.117,551
2020-05-17T04:11:35,42.805,6.029,CST-1368DR,6315,8850,15164,0.117,551
2020-05-17T04:14:37,42.805,6.029,CST-1368DR,6315,8851,15167,0.117,551
2020-05-17T04:17:39,42.805,6.029,CST-1368DR,6315,8849,15164,0.117,551
2020-05-17T04:20:40,42.805,6.029,CST-1368DR,6315,8850,15166,0.117,551
2020-05-17T04:23:42,42.805,6.029,CST-1368DR,6315,8853,15169,0.116,551
2020-05-17T04:26:44,42.805,6.029,CST-1368DR,6315,8851,15167,0.117,551
2020-05-17T04:29:45,42.805,6.029,CST-1368DR,6315,8852,15168,0.116,551
2020-05-17T04:32:47,42.805,6.029,CST-1368DR,6315,8852,15168,0.116,551
2020-05-17T04:35:49,42.805,6.029,CST-1368DR,6316,8850,15163,0.118,551
2020-05-17T04:38:51,42.805,6.029,CST-1368DR,6316,8851,15165,0.117,551
2020-05-17T04:41:52,42.805,6.029,CST-1368DR,6315,8851,15166,0.117,551
2020-05-17T04:44:54,42.805,6.029,CST-1368DR,6316,8852,15166,0.117,550
2020-05-17T04:47:56,42.805,6.029,CST-1368DR,6315,8852,15169,0.116,551
2020-05-17T04:50:57,42.805,6.029,CST-1368DR,6315,8851,15167,0.117,550
2020-05-17T04:53:59,42.805,6.029,CST-1368DR,6315,8852,15168,0.116,551
2020-05-17T04:57:01,42.805,6.029,CST-1368DR,6315,8851,15167,0.117,551
2020-05-17T05:00:03,42.805,6.029,CST-1368DR,6315,8852,15168,0.116,551
2020-05-17T05:03:04,42.805,6.029,CST-1368DR,6315,8851,15166,0.117,551
2020-05-17T05:06:06,42.805,6.029,CST-1368DR,6315,8851,15166,0.117,551
2020-05-17T05:09:08,42.805,6.029,CST-1368DR,6315,8851,15167,0.117,551
2020-05-17T05:12:10,42.805,6.029,CST-1368DR,6315,8850,15166,0.117,551
2020-05-17T05:15:11,42.805,6.029,CST-1368DR,6315,8851,15166,0.117,551
2020-05-17T05:18:13,42.805,6.029,CST-1368DR,6315,8850,15165,0.117,551
2020-05-17T05:21:15,42.805,6.029,CST-1368DR,6315,8851,15166,0.117,551
2020-05-17T05:24:16,42.805,6.029,CST-1368DR,6315,8852,15168,0.116,551
2020-05-17T05:27:18,42.805,6.029,CST-1368DR,6315,8852,15168,0.116,551
2020-05-17T05:30:20,42.805,6.029,CST-1368DR,6315,8851,15166,0.117,551
2020-05-17T05:33:22,42.805,6.029,CST-1368DR,6315,8852,15169,0.116,551
2020-05-17T05:36:23,42.805,6.029,CST-1368DR,6315,8851,15166,0.117,551
2020-05-17T05:39:25,42.805,6.029,CST-1368DR,6315,8851,15167,0.117,551
2020-05-17T05:42:27,42.805,6.029,CST-1368DR,6315,8850,15165,0.117,551
2020-05-17T05:45:28,42.805,6.029,CST-1368DR,6315,8851,15166,0.117,550
2020-05-17T05:48:30,42.805,6.029,CST-1368DR,6315,8852,15168,0.116,551
2020-05-17T05:51:32,42.805,6.029,CST-1368DR,6315,8851,15166,0.117,551
2020-05-17T05:54:34,42.805,6.029,CST-1368DR,6315,8850,15166,0.117,551
2020-05-17T05:57:35,42.805,6.029,CST-1368DR,6315,8852,15168,0.116,551
2020-05-17T06:00:37,42.805,6.029,CST-1368DR,6315,8851,15167,0.117,551
2020-05-17T06:03:39,42.805,6.029,CST-1368DR,6315,8851,15166,0.117,551
2020-05-17T06:06:40,42.805,6.029,CST-1368DR,6315,8851,15167,0.117,551
2020-05-17T06:09:42,42.805,6.029,CST-1368DR,6315,8852,15168,0.116,550
2020-05-17T06:12:44,42.805,6.029,CST-1368DR,6315,8852,15168,0.116,551
2020-05-17T06:15:45,42.805,6.029,CST-1368DR,6315,8851,15166,0.117,551
2020-05-17T06:18:47,42.805,6.029,CST-1368DR,6315,8851,15166,0.117,551
2020-05-17T06:21:49,42.805,6.029,CST-1368DR,6315,8850,15166,0.117,551
2020-05-17T06:24:51,42.805,6.029,CST-1368DR,6315,8851,15167,0.117,551
2020-05-17T06:27:52,42.805,6.029,CST-1368DR,6315,8849,15163,0.118,551
2020-05-17T06:30:54,42.805,6.029,CST-1368DR,6315,8850,15165,0.117,551
2020-05-17T06:33:56,42.805,6.029,CST-1368DR,6315,8849,15164,0.117,551
2020-05-17T06:36:57,42.805,6.029,CST-1368DR,6315,8851,15167,0.117,551
2020-05-17T06:39:59,42.805,6.029,CST-1368DR,6315,8851,15166,0.117,551
2020-05-17T06:43:01,42.805,6.029,CST-1368DR,6315,8852,15168,0.116,551
2020-05-17T06:46:03,42.805,6.029,CST-1368DR,6315,8851,15167,0.117,551
2020-05-17T06:49:04,42.805,6.029,CST-1368DR,6315,8851,15166,0.117,551
2020-05-17T06:52:06,42.805,6.029,CST-1368DR,6315,8851,15167,0.117,550
2020-05-17T06:55:08,42.805,6.029,CST-1368DR,6315,8852,15169,0.116,551
2020-05-17T06:58:09,42.805,6.029,CST-1368DR,6315,8851,15167,0.117,551
2020-05-17T07:01:11,42.805,6.029,CST-1368DR,6315,8850,15165,0.117,551
2020-05-17T07:04:13,42.805,6.029,CST-1368DR,6315,8851,15166,0.117,551
2020-05-17T07:07:14,42.805,6.029,CST-1368DR,6315,8847,15160,0.119,551
2020-05-17T07:10:16,42.805,6.029,CST-1368DR,6315,8851,15167,0.117,551
2020-05-17T07:13:18,42.805,6.029,CST-1368DR,6315,8850,15166,0.117,551
2020-05-17T07:16:19,42.805,6.029,CST-1368DR,6315,8851,15167,0.117,551
2020-05-17T07:19:21,42.805,6.029,CST-1368DR,6315,8850,15165,0.117,551
2020-05-17T07:22:23,42.805,6.029,CST-1368DR,6315,8851,15166,0.117,551
2020-05-17T07:25:24,42.805,6.029,CST-1368DR,6314,8850,15168,0.116,551
2020-05-17T07:28:26,42.805,6.029,CST-1368DR,6315,8851,15166,0.117,551
2020-05-17T07:31:28,42.805,6.029,CST-1368DR,6314,8851,15169,0.116,551
2020-05-17T07:34:30,42.805,6.029,CST-1368DR,6315,8850,15165,0.117,551
2020-05-17T07:37:31,42.805,6.029,CST-1368DR,6314,8851,15169,0.116,551
2020-05-17T07:40:33,42.805,6.029,CST-1368DR,6314,8852,15170,0.116,551
2020-05-17T07:43:35,42.805,6.029,CST-1368DR,6314,8852,15170,0.116,551
2020-05-17T07:46:36,42.805,6.029,CST-1368DR,6314,8846,15160,0.119,551
2020-05-17T07:49:38,42.805,6.029,CST-1368DR,6313,8848,15166,0.117,550
2020-05-17T07:52:40,42.805,6.029,CST-1368DR,6313,8848,15166,0.117,551
2020-05-17T07:55:42,42.805,6.029,CST-1368DR,6313,8848,15167,0.117,550
2020-05-17T07:58:43,42.805,6.029,CST-1368DR,6313,8848,15167,0.117,550
2020-05-17T08:01:45,42.805,6.029,CST-1368DR,6313,8850,15170,0.116,551
2020-05-17T08:04:47,42.805,6.029,CST-1368DR,6313,8847,15165,0.117,551
2020-05-17T08:07:48,42.805,6.029,CST-1368DR,6313,8846,15162,0.118,551
2020-05-17T08:10:50,42.805,6.029,CST-1368DR,6313,8844,15159,0.119,551
2020-05-17T08:13:52,42.805,6.029,CST-1368DR,6313,8849,15168,0.116,551
2020-05-17T08:16:53,42.805,6.029,CST-1368DR,6313,8848,15167,0.117,551
2020-05-17T08:19:55,42.805,6.029,CST-1368DR,6313,8849,15168,0.116,551
2020-05-17T08:22:57,42.805,6.029,CST-1368DR,6313,8848,15166,0.117,551
2020-05-17T08:25:59,42.805,6.029,CST-1368DR,6313,8849,15168,0.116,551
2020-05-17T08:29:00,42.805,6.029,CST-1368DR,6313,8848,15166,0.117,551
2020-05-17T08:32:02,42.805,6.029,CST-1368DR,6313,8847,15165,0.117,551
2020-05-17T08:35:04,42.805,6.029,CST-1368DR,6314,8849,15166,0.117,550
2020-05-17T08:38:06,42.805,6.029,CST-1368DR,6314,8849,15166,0.117,551
2020-05-17T08:41:07,42.805,6.029,CST-1368DR,6314,8848,15164,0.117,550
2020-05-17T08:44:09,42.805,6.029,CST-1368DR,6314,8849,15166,0.117,551
2020-05-17T08:47:11,42.805,6.029,CST-1368DR,6314,8846,15161,0.118,551
2020-05-17T08:50:12,42.805,6.029,CST-1368DR,6314,8849,15166,0.117,551
2020-05-17T08:53:14,42.805,6.029,CST-1368DR,6314,8849,15166,0.117,551
2020-05-17T08:56:16,42.805,6.029,CST-1368DR,6314,8851,15168,0.116,551
2020-05-17T08:59:18,42.805,6.029,CST-1368DR,6314,8851,15168,0.116,551
2020-05-17T09:02:19,42.805,6.029,CST-1368DR,6314,8850,15167,0.117,551
2020-05-17T09:05:21,42.805,6.029,CST-1368DR,6314,8849,15166,0.117,550
2020-05-17T09:08:22,42.805,6.029,CST-1368DR,6314,8850,15167,0.117,551
2020-05-17T09:11:24,42.805,6.029,CST-1368DR,6314,8851,15169,0.116,551
2020-05-17T09:14:26,42.805,6.029,CST-1368DR,6314,8852,15170,0.116,551
2020-05-17T09:17:28,42.805,6.029,CST-1368DR,6314,8851,15170,0.116,551
2020-05-17T09:20:29,42.805,6.029,CST-1368DR,6314,8850,15167,0.117,551
2020-05-17T09:23:31,42.805,6.029,CST-1368DR,6314,8851,15168,0.116,551
2020-05-17T09:26:33,42.805,6.029,CST-1368DR,6314,8850,15168,0.116,551
2020-05-17T09:29:34,42.805,6.029,CST-1368DR,6314,8851,15169,0.116,551
2020-05-17T09:32:36,42.805,6.029,CST-1368DR,6314,8850,15167,0.117,551
2020-05-17T09:35:38,42.805,6.029,CST-1368DR,6314,8851,15170,0.116,551
2020-05-17T09:38:39,42.805,6.029,CST-1368DR,6314,8850,15167,0.117,551
2020-05-17T09:41:41,42.805,6.029,CST-1368DR,6314,8850,15167,0.117,551
2020-05-17T09:44:43,42.805,6.029,CST-1368DR,6314,8849,15165,0.117,551
2020-05-17T09:47:45,42.805,6.029,CST-1368DR,6314,8849,15166,0.117,551
2020-05-17T09:50:46,42.805,6.029,CST-1368DR,6314,8851,15169,0.116,550
2020-05-17T09:53:48,42.805,6.029,CST-1368DR,6314,8850,15167,0.117,551
2020-05-17T09:56:50,42.805,6.029,CST-1368DR,6314,8851,15169,0.116,551
2020-05-17T09:59:52,42.805,6.029,CST-1368DR,6314,8851,15169,0.116,551
2020-05-17T10:02:53,42.805,6.029,CST-1368DR,6314,8851,15169,0.116,551
2020-05-17T10:05:55,42.805,6.029,CST-1368DR,6314,8850,15167,0.117,551
2020-05-17T10:08:57,42.805,6.029,CST-1368DR,6314,8851,15169,0.116,551
2020-05-17T10:11:59,42.805,6.029,CST-1368DR,6314,8850,15168,0.116,551
2020-05-17T10:15:00,42.805,6.029,CST-1368DR,6314,8850,15167,0.117,551
2020-05-17T10:18:02,42.805,6.029,CST-1368DR,6314,8843,15156,0.120,550
2020-05-17T10:21:04,42.805,6.029,CST-1368DR,6314,8850,15167,0.117,551
2020-05-17T10:24:05,42.805,6.029,CST-1368DR,6314,8850,15167,0.117,551
2020-05-17T10:27:07,42.805,6.029,CST-1368DR,6314,8850,15167,0.117,551
2020-05-17T10:30:09,42.805,6.029,CST-1368DR,6314,8850,15167,0.117,551
2020-05-17T10:33:11,42.805,6.029,CST-1368DR,6314,8849,15166,0.117,551
2020-05-17T10:36:12,42.805,6.029,CST-1368DR,6314,8851,15170,0.116,551
2020-05-17T10:39:14,42.805,6.029,CST-1368DR,6314,8851,15169,0.116,551
2020-05-17T10:42:16,42.805,6.029,CST-1368DR,6314,8850,15167,0.117,551
2020-05-17T10:45:17,42.805,6.029,CST-1368DR,6314,8849,15166,0.117,551
2020-05-17T10:48:19,42.805,6.029,CST-1368DR,6314,8851,15169,0.116,551
2020-05-17T10:51:21,42.805,6.029,CST-1368DR,6314,8850,15167,0.117,551
2020-05-17T10:54:23,42.805,6.029,CST-1368DR,6314,8849,15166,0.117,551
2020-05-17T10:57:24,42.805,6.029,CST-1368DR,6314,8850,15167,0.117,550
2020-05-17T11:00:26,42.805,6.029,CST-1368DR,6314,8850,15167,0.117,551
2020-05-17T11:03:28,42.805,6.029,CST-1368DR,6314,8849,15166,0.117,551
2020-05-17T11:06:29,42.805,6.029,CST-1368DR,6314,8850,15168,0.116,551
2020-05-17T11:09:31,42.805,6.029,CST-1368DR,6314,8848,15164,0.117,551
2020-05-17T11:12:33,42.805,6.029,CST-1368DR,6314,8850,15167,0.117,551
2020-05-17T11:15:35,42.805,6.029,CST-1368DR,6314,8848,15164,0.117,551
2020-05-17T11:18:36,42.805,6.029,CST-1368DR,6314,8847,15163,0.118,551
2020-05-17T11:21:38,42.805,6.029,CST-1368DR,6314,8849,15165,0.117,551
2020-05-17T11:24:40,42.805,6.029,CST-1368DR,6314,8849,15165,0.117,550
2020-05-17T11:27:41,42.805,6.029,CST-1368DR,6314,8848,15164,0.117,551
2020-05-17T11:30:43,42.805,6.029,CST-1368DR,6314,8848,15164,0.117,551
2020-05-17T11:33:45,42.805,6.029,CST-1368DR,6314,8850,15167,0.117,550
2020-05-17T11:36:47,42.805,6.029,CST-1368DR,6314,8850,15167,0.117,551
2020-05-17T11:39:48,42.805,6.029,CST-1368DR,6314,8849,15166,0.117,551
2020-05-17T11:42:50,42.805,6.029,CST-1368DR,6314,8850,15167,0.117,551
2020-05-17T11:45:52,42.805,6.029,CST-1368DR,6314,8848,15163,0.118,551
2020-05-17T11:48:54,42.805,6.029,CST-1368DR,6314,8849,15166,0.117,551
2020-05-17T11:51:55,42.805,6.029,CST-1368DR,6314,8846,15160,0.119,551
2020-05-17T11:54:57,42.805,6.029,CST-1368DR,6314,8848,15164,0.117,551
2020-05-17T11:57:59,42.805,6.029,CST-1368DR,6314,8848,15164,0.117,551
2020-05-17T12:01:01,42.805,6.029,CST-1368DR,6314,8849,15165,0.117,551
2020-05-17T12:04:02,42.805,6.029,CST-1368DR,6314,8848,15164,0.117,551
2020-05-17T12:07:04,42.805,6.029,CST-1368DR,6314,8848,15164,0.117,551
2020-05-17T12:10:06,42.805,6.029,CST-1368DR,6314,8850,15167,0.117,551
2020-05-17T12:13:07,42.805,6.029,CST-1368DR,6314,8850,15167,0.117,551
2020-05-17T12:16:09,42.805,6.029,CST-1368DR,6314,8848,15164,0.117,551
2020-05-17T12:19:11,42.805,6.029,CST-1368DR,6314,8850,15167,0.117,551
2020-05-17T12:22:12,42.805,6.029,CST-1368DR,6314,8849,15165,0.117,551
2020-05-17T12:25:14,42.805,6.029,CST-1368DR,6314,8850,15168,0.116,551
2020-05-17T12:28:16,42.805,6.029,CST-1368DR,6314,8850,15167,0.117,551
2020-05-17T12:31:17,42.805,6.029,CST-1368DR,6314,8846,15161,0.118,551
2020-05-17T12:34:19,42.805,6.029,CST-1368DR,6314,8850,15167,0.117,551
2020-05-17T12:37:21,42.805,6.029,CST-1368DR,6314,8848,15164,0.117,551
2020-05-17T12:40:22,42.805,6.029,CST-1368DR,6314,8850,15167,0.117,551
2020-05-17T12:43:24,42.805,6.029,CST-1368DR,6314,8849,15165,0.117,551
2020-05-17T12:46:26,42.805,6.029,CST-1368DR,6314,8848,15163,0.118,551
2020-05-17T12:49:27,42.805,6.029,CST-1368DR,6314,8849,15165,0.117,551
2020-05-17T12:52:29,42.805,6.029,CST-1368DR,6314,8849,15165,0.117,551
2020-05-17T12:55:31,42.805,6.029,CST-1368DR,6314,8847,15162,0.118,551
2020-05-17T12:58:33,42.805,6.029,CST-1368DR,6314,8849,15165,0.117,551
2020-05-17T13:01:35,42.805,6.029,CST-1368DR,6314,8848,15164,0.117,551
2020-05-17T13:04:36,42.805,6.029,CST-1368DR,6314,8847,15162,0.118,551
2020-05-17T13:07:38,42.805,6.029,CST-1368DR,6313,8846,15163,0.118,551
2020-05-17T13:10:40,42.805,6.029,CST-1368DR,6314,8848,15164,0.117,551
2020-05-17T13:13:41,42.805,6.029,CST-1368DR,6314,8847,15161,0.118,551
2020-05-17T13:16:43,42.805,6.029,CST-1368DR,6314,8848,15164,0.117,551
2020-05-17T13:19:45,42.805,6.029,CST-1368DR,6314,8848,15164,0.117,551
2020-05-17T13:22:46,42.805,6.029,CST-1368DR,6314,8848,15164,0.117,551
2020-05-17T13:25:48,42.805,6.029,CST-1368DR,6314,8849,15165,0.117,551
2020-05-17T13:28:50,42.805,6.029,CST-1368DR,6314,8850,15167,0.117,551
2020-05-17T13:31:51,42.805,6.029,CST-1368DR,6314,8849,15166,0.117,551
2020-05-17T13:34:53,42.805,6.029,CST-1368DR,6314,8848,15164,0.117,551
2020-05-17T13:37:55,42.805,6.029,CST-1368DR,6314,8848,15164,0.117,551
2020-05-17T13:40:57,42.805,6.029,CST-1368DR,6314,8850,15167,0.117,551
2020-05-17T13:43:58,42.805,6.029,CST-1368DR,6313,8849,15168,0.116,551
2020-05-17T13:47:00,42.805,6.029,CST-1368DR,6314,8848,15164,0.117,551
2020-05-17T13:50:01,42.805,6.029,CST-1368DR,6314,8848,15164,0.117,551
2020-05-17T13:53:03,42.805,6.029,CST-1368DR,6314,8850,15167,0.117,551
2020-05-17T13:56:05,42.805,6.029,CST-1368DR,6314,8848,15163,0.118,551
2020-05-17T13:59:07,42.805,6.029,CST-1368DR,6314,8849,15166,0.117,551
2020-05-17T14:02:08,42.805,6.029,CST-1368DR,6314,8850,15167,0.117,551
2020-05-17T14:05:10,42.805,6.029,CST-1368DR,6314,8849,15165,0.117,551
2020-05-17T14:08:12,42.805,6.029,CST-1368DR,6314,8849,15165,0.117,551
2020-05-17T14:11:13,42.805,6.029,CST-1368DR,6314,8848,15164,0.117,551
2020-05-17T14:14:15,42.805,6.029,CST-1368DR,6313,8850,15169,0.116,551
2020-05-17T14:17:17,42.805,6.029,CST-1368DR,6314,8849,15166,0.117,551
2020-05-17T14:20:19,42.805,6.029,CST-1368DR,6314,8849,15166,0.117,551
2020-05-17T14:23:20,42.805,6.029,CST-1368DR,6313,8847,15165,0.117,551
2020-05-17T14:26:22,42.805,6.029,CST-1368DR,6313,8848,15166,0.117,551
2020-05-17T14:29:24,42.805,6.029,CST-1368DR,6313,8847,15165,0.117,551
2020-05-17T14:32:25,42.805,6.029,CST-1368DR,6314,8849,15166,0.117,551
2020-05-17T14:35:27,42.805,6.029,CST-1368DR,6313,8848,15167,0.117,551
2020-05-17T14:38:29,42.805,6.029,CST-1368DR,6313,8848,15167,0.117,551
2020-05-17T14:41:31,42.805,6.029,CST-1368DR,6313,8849,15168,0.116,551
2020-05-17T14:44:32,42.805,6.029,CST-1368DR,6313,8849,15168,0.116,551
2020-05-17T14:47:34,42.805,6.029,CST-1368DR,6314,8849,15165,0.117,551
2020-05-17T14:50:36,42.805,6.029,CST-1368DR,6313,8850,15169,0.116,551
2020-05-17T14:53:37,42.805,6.029,CST-1368DR,6313,8847,15165,0.117,551
2020-05-17T14:56:39,42.805,6.029,CST-1368DR,6313,8848,15167,0.117,551
2020-05-17T14:59:41,42.805,6.029,CST-1368DR,6314,8850,15167,0.117,551
2020-05-17T15:02:43,42.805,6.029,CST-1368DR,6313,8849,15168,0.116,551
2020-05-17T15:05:44,42.805,6.029,CST-1368DR,6313,8848,15166,0.117,551
2020-05-17T15:08:46,42.805,6.029,CST-1368DR,6313,8848,15165,0.117,551
2020-05-17T15:11:48,42.805,6.029,CST-1368DR,6313,8849,15168,0.116,551
2020-05-17T15:14:50,42.805,6.029,CST-1368DR,6313,8848,15166,0.117,551
2020-05-17T15:17:51,42.805,6.029,CST-1368DR,6313,8849,15168,0.116,551
2020-05-17T15:20:53,42.805,6.029,CST-1368DR,6313,8846,15163,0.118,551
2020-05-17T15:23:55,42.805,6.029,CST-1368DR,6313,8848,15166,0.117,551
2020-05-17T15:26:56,42.805,6.029,CST-1368DR,6313,8848,15167,0.117,551
2020-05-17T15:29:58,42.805,6.029,CST-1368DR,6313,8848,15167,0.117,551
2020-05-17T15:33:00,42.805,6.029,CST-1368DR,6313,8850,15169,0.116,551
2020-05-17T15:36:01,42.805,6.029,CST-1368DR,6313,8849,15168,0.116,551
2020-05-17T15:39:03,42.805,6.029,CST-1368DR,6313,8848,15166,0.117,551
2020-05-17T15:42:05,42.805,6.029,CST-1368DR,6313,8848,15166,0.117,551
2020-05-17T15:45:07,42.805,6.029,CST-1368DR,6313,8848,15167,0.117,551
2020-05-17T15:48:08,42.805,6.029,CST-1368DR,6313,8847,15165,0.117,551
2020-05-17T15:51:10,42.805,6.029,CST-1368DR,6313,8848,15166,0.117,551
2020-05-17T15:54:12,42.805,6.029,CST-1368DR,6313,8849,15168,0.116,551
2020-05-17T15:57:14,42.805,6.029,CST-1368DR,6313,8848,15167,0.117,551
2020-05-17T16:00:15,42.805,6.029,CST-1368DR,6313,8849,15168,0.116,551
2020-05-17T16:03:17,42.805,6.029,CST-1368DR,6313,8849,15168,0.116,551
2020-05-17T16:06:19,42.805,6.029,CST-1368DR,6313,8847,15165,0.117,551
2020-05-17T16:09:21,42.805,6.029,CST-1368DR,6313,8846,15163,0.118,551
2020-05-17T16:12:22,42.805,6.029,CST-1368DR,6313,8849,15168,0.116,551
2020-05-17T16:15:24,42.805,6.029,CST-1368DR,6313,8847,15165,0.117,551
2020-05-17T16:18:26,42.805,6.029,CST-1368DR,6313,8848,15167,0.117,551
2020-05-17T16:21:28,42.805,6.029,CST-1368DR,6313,8847,15165,0.117,551
2020-05-17T16:24:30,42.805,6.029,CST-1368DR,6313,8848,15165,0.117,551
2020-05-17T16:27:31,42.805,6.029,CST-1368DR,6313,8848,15166,0.117,551
2020-05-17T16:30:33,42.805,6.029,CST-1368DR,6313,8847,15165,0.117,551
2020-05-17T16:33:35,42.805,6.029,CST-1368DR,6313,8846,15162,0.118,551
2020-05-17T16:36:37,42.805,6.029,CST-1368DR,6313,8848,15166,0.117,551
2020-05-17T16:39:38,42.805,6.029,CST-1368DR,6313,8847,15165,0.117,551
2020-05-17T16:42:40,42.805,6.029,CST-1368DR,6313,8846,15163,0.118,551
2020-05-17T16:45:42,42.805,6.029,CST-1368DR,6313,8848,15165,0.117,551
2020-05-17T16:48:43,42.805,6.029,CST-1368DR,6313,8847,15165,0.117,551
2020-05-17T16:51:45,42.805,6.029,CST-1368DR,6313,8847,15165,0.117,551